COSMOS 2251 DEB, 35455

Orbit data source: Space-Track

COSMOS 2251 DEB, 35455 is space debris in LEO originally from a launch on Wed, 16 Jun 1993 UTC launched from the Plesetsk Missile And Space Complex (PKMTR). The debris from Iridium 33, an American commercial communications satellite, has been tracked extensively since its accidental collision with the defunct Russian satellite Cosmos 2251 in 2009. This event, occurring at high speed in low Earth orbit (LEO), generated thousands of pieces of space debris, significantly increasing the risk of further collisions. The Iridium 33 debris cloud has impacted space traffic management and orbital debris mitigation strategies, making it a subject of ongoing study in space situational awareness.

Loading next visibility...
Identifier
35455, 1993-036AKZ
Orbit
LEO
Country
Flag of CISCIS
Related business
Manufacturer
Unknown
Mission
Spacecraft
Bus & Motor
Unknown
Mass
Unknown
Launch date (UTC)
1993-06-16 (33 years ago)
Launch vehicle
Unknown
Launch site
Plesetsk Missile And Space Complex (PKMTR)
Object type
Payload
Rocket body
Debris
Shape & HBR
Unknown shape, 0.1 m
Radar Cross Section
Small (<0.1 m²)

Expand to show TLE details & history
Last TLE update: 18 hours ago

TLE from 18 hours ago
0 COSMOS 2251 DEB
1 35455U 93036AKZ 26120.81031658  .00003675  00000-0  88613-3 0  9996
2 35455  74.0294  33.4415 0099784 105.0182 256.2049 14.50553128885591
Epoch: 2026-04-30T19:26Z
TLE epoch observation values (Epoch: 2026-04-30T19:26:51.352Z)
Latitude
0.00002°
Longitude
-117.02404°
Altitude
744.037 km
Speed
7.474 km/s
True Right ascension
02h 13m 45s
True Declination
0° 00' 00"
Sunlit
Object was in daylight at epoch
Visualization orbit readout
Latitude
Unknown
Longitude
Unknown
Altitude
Unknown
Speed
Unknown
Apparent Right ascension
Unknown
Apparent Declination
Unknown
Sunlit
N/A
Visualization observer readout
Local Sidereal Time
20:52:49
Azimuth
Unknown
Elevation
Unknown
Doppler factor
Unknown
Orbital elements
Apogee altitude
792.293 km
Perigee altitude
650.608 km
Semi-major axis
7,099.588 km
Eccentricity
0.00998
Inclination
74.0294°
RAAN
33.4415°
Arg. of periapsis
105.0182°
True anomaly
255.0978°
Mean anomaly
256.2049°
Eccentric anomaly
255.65102°
Mean motion
3.62822 °/min
Orbital period
99.22 mins
BSTAR
0.00088613
Loading maneuver chart data...
Computing Atmospheric mass density...
Loading historical data...
Loading historical data...
Loading historical data...
Loading historical data...
Loading historical data...
Loading historical data...
Loading historical data...

Documentation

Showing up to 5 results
|